This is the latest recevied weather packets stored in our database for station/object N0QWM. If no packets are shown the sender has not sent any weather packets the latest 10 day(s).
| Time | Temp. | Humidity | Pressure | Rain* | Wind** | Luminosity | Snow |
|---|---|---|---|---|---|---|---|
| 1788613446 | 25.56° C | 92% | 1020.4 hPa | 0 mm | - | 74 W/m² | - |
| 1788613141 | 25° C | 93% | 1020.1 hPa | 0 mm | - | 66 W/m² | - |
| 1788612835 | 25° C | 94% | 1020.4 hPa | 0 mm | - | 58 W/m² | - |
| 1788612531 | 24.44° C | 95% | 1020.3 hPa | 0 mm | - | 57 W/m² | - |
| 1788612228 | 23.89° C | 97% | 1020.4 hPa | 0 mm | - | 62 W/m² | - |
| 1788611922 | 23.89° C | 97% | 1020.3 hPa | 0 mm | - | 40 W/m² | - |
| 1788611619 | 23.89° C | 98% | 1020.4 hPa | 0 mm | - | 35 W/m² | - |
| 1788611319 | 23.33° C | 98% | 1020.2 hPa | 0 mm | - | 32 W/m² | - |
| 1788611018 | 23.33° C | 99% | 1020.3 hPa | 0 mm | - | 30 W/m² | - |
| 1788610713 | 23.33° C | 99% | 1020.2 hPa | 0 mm | - | 27 W/m² | - |
| 1788610410 | 23.33° C | 99% | 1020.1 hPa | 0 mm | - | 23 W/m² | - |
| 1788610108 | 22.78° C | 99% | 1020.1 hPa | 0 mm | - | 21 W/m² | - |
| 1788609803 | 22.78° C | 99% | 1020 hPa | 0 mm | - | 19 W/m² | - |
| 1788609499 | 22.78° C | 99% | 1019.7 hPa | 0 mm | - | 16 W/m² | - |
| 1788609198 | 22.78° C | 99% | 1019.8 hPa | 0 mm | - | 13 W/m² | - |
| 1788608898 | 22.78° C | 99% | 1020 hPa | 0 mm | - | 10 W/m² | - |
| 1788608597 | 22.78° C | 99% | 1019.9 hPa | 0 mm | - | 8 W/m² | - |
| 1788608296 | 22.78° C | 99% | 1019.7 hPa | 0 mm | - | 6 W/m² | - |
| 1788607992 | 22.78° C | 99% | 1020 hPa | 0 mm | - | 3 W/m² | - |
| 1788607687 | 22.78° C | 99% | 1020 hPa | 0 mm | - | 1 W/m² | - |
| 1788607382 | 22.78° C | 99% | 1019.8 hPa | 0 mm | - | 1 W/m² | - |
| 1788607076 | 22.78° C | 99% | 1019.8 hPa | 0 mm | - | 0 W/m² | - |
| 1788606771 | 22.78° C | 99% | 1019.8 hPa | 0 mm | - | 0 W/m² | - |
| 1788606470 | 22.78° C | 99% | 1019.6 hPa | 0 mm | - | 0 W/m² | - |
| 1788606164 | 22.78° C | 99% | 1019.7 hPa | 0 mm | - | 0 W/m² | - |
* Rain latest hour (hover to see other rain measurements)
** Current wind speed in m/s (hover to see current wind gust speed)